EW2142 Weather Reports


Display with metric or nautical units.
time (UTC)temp
F
wind
direction
speed
MPH
gust
MPH
rain 1hr
in
rain 24hr
in
rain mn
in
humidity
%
barometer
mb
20260504050503 46 0 0.0 0.0 0.00 0.09 0.09 1 1004.5
20260504050003 46 0 0.0 0.0 0.00 0.09 0.09 1 1004.5
20260504045503 46 0 0.0 0.0 0.00 0.09 0.09 1 1004.5
20260504045023 46 0 0.0 0.0 0.00 0.09 0.09 1 1004.4
20260504044503 46 0 0.0 0.0 0.00 0.09 0.09 1 1004.5
20260504044003 45 0 0.0 0.0 0.00 0.09 0.09 1 1004.4
20260504043502 45 0 0.0 0.0 0.00 0.09 0.09 1 1004.4
20260504043003 45 0 0.0 0.0 0.00 0.09 0.09 1 1004.3
20260504042524 45 136 0.0 1.0 0.00 0.09 0.09 1 1004.4
20260504042003 45 136 0.0 1.0 0.00 0.09 0.09 1 1004.5
20260504041524 45 1 0.0 1.0 0.00 0.09 0.09 1 1004.5
20260504041003 45 1 0.0 1.0 0.00 0.09 0.09 1 1004.6
20260504040503 46 0 0.0 0.0 0.00 0.09 0.09 1 1004.5
20260504040003 46 0 0.0 0.0 0.00 0.09 0.09 1 1004.7
20260504035524 46 0 0.0 0.0 0.00 0.09 0.09 1 1004.7
20260504035003 46 0 0.0 0.0 0.00 0.09 0.09 1 1004.7
20260504034502 46 0 0.0 0.0 0.00 0.09 0.09 1 1004.7
20260504034003 46 0 0.0 0.0 0.00 0.09 0.09 1 1004.7
20260504033503 46 319 0.0 1.0 0.00 0.09 0.09 1 1004.7
20260504033024 46 312 0.0 1.0 0.00 0.09 0.09 1 1004.7
20260504032524 46 284 0.0 1.0 0.00 0.09 0.09 1 1004.7
20260504032003 47 0 0.0 0.0 0.00 0.09 0.09 1 1004.7
20260504031524 47 0 0.0 0.0 0.01 0.09 0.09 1 1004.6
20260504031003 47 0 0.0 0.0 0.01 0.09 0.09 1 1004.5
20260504030503 47 0 0.0 0.0 0.01 0.09 0.09 1 1004.7
20260504030003 47 0 0.0 0.0 0.01 0.09 0.09 1 1004.7
20260504025524 47 0 0.0 0.0 0.02 0.09 0.09 1 1004.7
20260504025003 47 0 0.0 0.0 0.02 0.09 0.09 1 1004.7
20260504024502 47 0 0.0 0.0 0.02 0.09 0.09 1 1004.9
20260504024024 47 0 0.0 0.0 0.02 0.09 0.09 1 1004.9
20260504023503 47 0 0.0 0.0 0.02 0.09 0.09 1 1004.9
20260504023003 47 0 0.0 0.0 0.02 0.09 0.09 1 1005.0
20260504022503 48 0 0.0 0.0 0.02 0.09 0.09 1 1005.1
20260504022024 48 0 0.0 0.0 0.02 0.09 0.09 1 1005.1
20260504021503 48 169 0.0 1.0 0.02 0.08 0.08 1 1005.1
20260504021003 48 302 0.0 2.0 0.02 0.08 0.08 1 1005.2
20260504020503 49 304 0.0 2.0 0.02 0.08 0.08 1 1005.3
20260504020003 49 0 0.0 0.0 0.02 0.08 0.08 1 1005.3
20260504015503 49 0 0.0 0.0 0.02 0.07 0.07 1 1005.3
20260504015003 49 247 0.0 1.0 0.02 0.07 0.07 1 1005.3
20260504014503 49 246 0.0 1.0 0.02 0.07 0.07 1 1005.3
20260504014003 49 236 0.0 1.0 0.02 0.07 0.07 1 1005.2
20260504013524 49 226 0.0 1.0 0.03 0.07 0.07 1 1005.2
20260504013003 49 0 0.0 0.0 0.03 0.07 0.07 1 1005.3
20260504012503 49 0 0.0 0.0 0.04 0.07 0.07 1 1005.4
20260504012024 49 0 0.0 0.0 0.04 0.07 0.07 1 1005.4
20260504011503 49 0 0.0 0.0 0.03 0.06 0.06 1 1005.3
20260504011003 49 0 0.0 0.0 0.04 0.06 0.06 1 1005.3
20260504010524 49 0 0.0 0.0 0.04 0.06 0.06 1 1005.4
20260504010003 49 0 0.0 0.0 0.04 0.06 0.06 1 1005.4
20260504005503 49 0 0.0 0.0 0.03 0.06 0.06 1 1005.4
20260504005003 49 0 0.0 0.0 0.03 0.06 0.06 1 1005.6
20260504004503 49 0 0.0 0.0 0.02 0.05 0.05 1 1005.6
20260504004003 50 0 0.0 0.0 0.03 0.05 0.05 1 1005.6
20260504003502 50 0 0.0 0.0 0.02 0.04 0.04 1 1005.6
20260504003003 50 0 0.0 0.0 0.02 0.04 0.04 1 1005.6
20260504002503 50 0 0.0 0.0 0.02 0.03 0.03 1 1005.7
20260504002003 50 0 0.0 0.0 0.02 0.03 0.03 1 1005.7
20260504001503 50 0 0.0 0.0 0.02 0.03 0.03 1 1005.7
20260504001003 50 302 0.0 1.0 0.02 0.02 0.02 1 1005.8
20260504000503 50 302 0.0 1.0 0.02 0.02 0.02 1 1005.8
20260504000003 50 0 0.0 0.0 0.02 0.02 0.02 1 1005.8
20260503235503 50 0 0.0 0.0 0.02 0.02 0.02 1 1005.9
20260503235024 50 0 0.0 0.0 0.02 0.02 0.02 1 1005.8
20260503234503 50 137 0.0 1.0 0.02 0.02 0.02 1 1005.9
20260503234003 50 343 0.0 1.0 0.02 0.02 0.02 1 1006.0
20260503233503 50 320 0.0 1.0 0.02 0.02 0.02 1 1006.1
20260503233003 50 295 0.0 1.0 0.02 0.02 0.02 1 1006.1
20260503232503 50 294 0.0 1.0 0.02 0.02 0.02 1 1006.1
20260503232003 50 264 0.0 1.0 0.02 0.02 0.02 1 1006.2
20260503231503 51 264 0.0 1.0 0.01 0.01 0.01 1 1006.3
20260503231003 51 0 0.0 0.0 0.01 0.01 0.01 1 1006.3
20260503230503 51 0 0.0 0.0 0.01 0.01 0.01 1 1006.4
20260503230003 51 0 0.0 0.0 0.01 0.01 0.01 1 1006.4
20260503225503 51 103 0.0 1.0 0.00 0.00 0.00 1 1006.4
20260503225024 51 103 0.0 1.0 0.00 0.00 0.00 1 1006.4
20260503224502 51 103 0.0 1.0 0.00 0.00 0.00 1 1006.5
20260503224023 51 0 0.0 0.0 0.00 0.00 0.00 1 1006.4
20260503223503 51 0 0.0 0.0 0.00 0.00 0.00 1 1006.4
20260503223003 51 0 0.0 0.0 0.00 0.00 0.00 1 1006.4
20260503222503 51 113 0.0 1.0 0.00 0.00 0.00 1 1006.4
20260503222003 51 113 0.0 1.0 0.00 0.00 0.00 1 1006.4
20260503221503 51 0 0.0 0.0 0.00 0.00 0.00 1 1006.4
20260503221003 51 0 0.0 0.0 0.00 0.00 0.00 2 1006.4
20260503220503 51 0 0.0 0.0 0.00 0.00 0.00 3 1006.4
20260503220004 51 0 0.0 0.0 0.00 0.00 0.00 4 1006.5
20260503215503 51 0 0.0 0.0 0.00 0.00 0.00 5 1006.5
20260503215003 51 0 0.0 0.0 0.00 0.00 0.00 5 1006.6
20260503214503 51 0 0.0 0.0 0.00 0.00 0.00 5 1006.7
20260503214003 51 0 0.0 0.0 0.00 0.00 0.00 6 1006.7
20260503213503 51 0 0.0 0.0 0.00 0.00 0.00 9 1006.8
20260503213002 51 0 0.0 0.0 0.00 0.00 0.00 9 1006.8
20260503212503 51 0 0.0 0.0 0.00 0.00 0.00 9 1006.8
20260503212003 51 0 0.0 0.0 0.00 0.00 0.00 12 1006.8
20260503211503 51 0 0.0 0.0 0.00 0.00 0.00 12 1006.9
20260503211003 51 0 0.0 0.0 0.00 0.00 0.00 11 1006.9
20260503210503 50 0 0.0 0.0 0.00 0.00 0.00 11 1006.9
20260503210003 50 0 0.0 0.0 0.00 0.00 0.00 15 1007.0
20260503205524 50 0 0.0 0.0 0.00 0.00 0.00 18 1007.0
20260503205003 50 0 0.0 0.0 0.00 0.00 0.00 20 1007.1
20260503204503 50 0 0.0 0.0 0.00 0.00 0.00 20 1007.1
20260503204002 50 0 0.0 0.0 0.00 0.00 0.00 21 1007.2
20260503203503 50 0 0.0 0.0 0.00 0.00 0.00 24 1007.3
20260503203002 50 0 0.0 0.0 0.00 0.00 0.00 26 1007.4
20260503202502 50 0 0.0 0.0 0.00 0.00 0.00 32 1007.3
20260503202003 50 0 0.0 0.0 0.00 0.00 0.00 34 1007.4
20260503201503 50 0 0.0 0.0 0.00 0.00 0.00 37 1007.4
20260503201003 50 0 0.0 0.0 0.00 0.00 0.00 42 1007.4
20260503200503 51 0 0.0 0.0 0.00 0.00 0.00 43 1007.4
20260503200003 51 0 0.0 0.0 0.00 0.00 0.00 45 1007.4
20260503195503 51 0 0.0 0.0 0.00 0.00 0.00 45 1007.4
20260503195003 51 0 0.0 0.0 0.00 0.00 0.00 46 1007.5
20260503194503 52 0 0.0 0.0 0.00 0.00 0.00 46 1007.5
20260503194002 52 0 0.0 0.0 0.00 0.00 0.00 49 1007.6
20260503193503 52 0 0.0 0.0 0.00 0.00 0.00 51 1007.6
20260503193003 52 0 0.0 0.0 0.00 0.00 0.00 53 1007.6
20260503192502 52 0 0.0 0.0 0.00 0.00 0.00 55 1007.6
20260503192024 53 0 0.0 0.0 0.00 0.00 0.00 56 1007.6
20260503191503 53 0 0.0 0.0 0.00 0.00 0.00 57 1007.6
20260503191003 53 0 0.0 0.0 0.00 0.00 0.00 58 1007.6
20260503190524 53 0 0.0 0.0 0.00 0.00 0.00 58 1007.6
20260503190003 53 0 0.0 0.0 0.00 0.00 0.00 59 1007.6
20260503185524 54 326 0.0 1.0 0.00 0.00 0.00 60 1007.6
20260503185003 54 328 0.0 1.0 0.00 0.00 0.00 60 1007.6
20260503184503 54 322 0.0 1.0 0.00 0.00 0.00 61 1007.6
20260503184003 54 313 0.0 1.0 0.00 0.00 0.00 61 1007.6
20260503183502 54 0 0.0 0.0 0.00 0.00 0.00 61 1007.6
20260503183002 54 225 0.0 1.0 0.00 0.00 0.00 62 1007.6
20260503182503 54 268 0.0 2.0 0.00 0.00 0.00 62 1007.7
20260503182003 54 268 0.0 2.0 0.00 0.00 0.00 62 1007.7
20260503181504 54 256 0.0 1.0 0.00 0.00 0.00 63 1007.7
20260503181003 54 304 0.0 1.0 0.00 0.00 0.00 63 1007.7
20260503180503 54 4 0.0 1.0 0.00 0.00 0.00 63 1007.7
20260503180003 54 60 0.0 3.0 0.00 0.00 0.00 63 1007.7
20260503175503 54 114 0.0 3.0 0.00 0.00 0.00 64 1007.7
20260503175003 54 90 0.0 3.0 0.00 0.00 0.00 64 1007.7
20260503174503 55 348 0.0 3.0 0.00 0.00 0.00 64 1007.7
20260503174003 55 329 0.0 2.0 0.00 0.00 0.00 64 1007.7
20260503173503 55 345 0.0 2.0 0.00 0.00 0.00 64 1007.8
20260503173002 55 163 0.0 1.0 0.00 0.00 0.00 64 1007.8
20260503172524 55 205 0.0 1.0 0.00 0.00 0.00 64 1007.8
20260503172003 55 286 0.0 3.0 0.00 0.00 0.00 64 1007.9
20260503171502 56 289 0.0 3.0 0.00 0.00 0.00 64 1007.9
20260503171003 56 325 0.0 2.0 0.00 0.00 0.00 65 1008.0
20260503170503 56 350 0.0 2.0 0.00 0.00 0.00 65 1008.0
20260503151003 58 294 0.0 2.0 0.00 0.00 0.00 66 1008.6
20260503150524 58 270 0.0 3.0 0.00 0.00 0.00 66 1008.7
20260503131003 55 297 0.0 1.0 0.00 0.00 0.00 52 1009.4
20260503130524 54 299 0.0 1.0 0.00 0.00 0.00 50 1009.3
20260503110503 50 258 0.0 2.0 0.00 0.00 0.00 1 1009.8
20260503090503 48 150 0.0 1.0 0.00 0.00 0.00 1 1009.6
20260503081503 49 293 0.0 3.0 0.00 0.00 0.00 1 1009.7
20260503081003 49 189 0.0 3.0 0.00 0.00 0.00 1 1009.6
20260503080503 49 312 0.0 3.0 0.00 0.00 0.00 1 1009.5
20260503072503 50 0 0.0 0.0 0.00 0.00 0.00 1 1009.1
20260503072003 50 297 0.0 1.0 0.00 0.00 0.00 1 1009.1
20260503071502 50 297 0.0 1.0 0.00 0.00 0.00 1 1009.0
20260503071003 50 141 0.0 1.0 0.00 0.00 0.00 1 1008.9
20260503070503 50 148 0.0 1.0 0.00 0.00 0.00 1 1008.9
20260503055024 50 0 0.0 1.0 0.00 0.00 0.00 1 1008.6
20260503054503 50 0 0.0 1.0 0.00 0.00 0.00 1 1008.7
20260503054003 50 286 0.0 1.0 0.00 0.00 0.00 1 1008.6